Retour au catalogue

THORAD DELTA 1 DEB

ActifSSO
NORAD 14881·DEBRIS·🇺🇸 United States

Lancé Nov 15, 1974 depuis Vandenberg Space Force Base

Loading…

Prochains Passages (prochaines 24 heures)

TLE

FraisSource: Space-Track

Époque: Sep 14, 2026, 19:50 UTC

1 14881U 74089EU  26257.82688062 -.00000011  00000-0  23302-3 0  9998
2 14881 101.7891 204.1485 0065864 167.7396 218.5769 12.42220294 51601

Suivez THORAD DELTA 1 DEB en temps réel avec AllMySat

Download on the App Store